Weather History for KCMR - May, 2014

Change the Weather History Date:

Sunday, May 11, 2014

  Actual Average (KFLG) Record (KFLG)
Temperature  
Mean Temperature 42 °F 50 °F  
Max Temperature 53 °F 66 °F 86 °F (1996)
Min Temperature 32 °F 34 °F 16 °F (1933)
Degree Days  
Heating Degree Days 22 15  
Month to date heating degree days 176  
Since 1 July heating degree days 6532  
Cooling Degree Days 0 0  
Month to date cooling degree days 0  
Year to date cooling degree days 0  
Moisture  
Dew Point 23 °F    
Average Humidity 47    
Maximum Humidity 81    
Minimum Humidity 19    
Precipitation  
Precipitation 0.00 in 0.01 in 0.81 in (1980)
Month to date precipitation 0.23  
Year to date precipitation 7.71  
Snow  
Snow 0.00 in 0.00 in 0.30 in (1957)
Month to date snowfall 0.5  
Since 1 July snowfall 101.5  
Snow Depth -    
Sea Level Pressure  
Sea Level Pressure 29.94 in    
Wind  
Wind Speed 15 mph (West)    
Max Wind Speed 23 mph    
Max Gust Speed 30 mph    
Visibility 9 miles    
Events      
T = Trace of Precipitation, MM = Missing Value Source: NWS Daily Summary

Daily Weather History Graph

Daily Weather History Graph

Search for Another Location

Airport or City:

Trip Planner

Search our weather history database for the weather conditions in past years. The results will help you decide how hot, cold, wet, or windy it might be!

Date:

Astronomy

May. 11, 2014 Rise Set
Actual Time 5:27 AM MST 7:23 PM MST
Civil Twilight 4:59 AM MST 7:51 PM MST
Nautical Twilight 4:25 AM MST 8:24 PM MST
Astronomical Twilight 3:49 AM MST 9:01 PM MST
Moon 4:29 PM MST (5/11) 3:27 AM MST (5/11)
Length of Visible Light 14h 51m
Length of Day
13h 55m
Waxing Gibbous, 90% of the Moon is Illuminated
May 11
Waxing Gibbous
May 14
Full
May 21
Last Quarter
May 28
New
Jun 5
First Quarter

Hourly Weather History & Observations

Time (MST) Temp. Windchill Dew Point Humidity Pressure Visibility Wind Dir Wind Speed Gust Speed Precip Events Conditions
12:15 AM 53.6 °F - 28.4 °F 38% 29.81 in 10.0 mi South 17.3 mph 27.6 mph N/A   Overcast
12:35 AM 53.6 °F - 30.2 °F 41% 29.81 in 10.0 mi SSW 16.1 mph 23.0 mph N/A   Mostly Cloudy
12:55 AM 53.6 °F - 24.8 °F 33% 29.81 in 10.0 mi SW 16.1 mph 24.2 mph N/A   Overcast
1:15 AM 51.8 °F - 19.4 °F 28% 29.81 in 10.0 mi SSW 19.6 mph 29.9 mph N/A   Overcast
1:35 AM 50.0 °F - 14.0 °F 24% 29.80 in 10.0 mi SSW 13.8 mph 25.3 mph N/A   Mostly Cloudy
2:15 AM 48.2 °F - 6.8 °F 19% 29.81 in 10.0 mi SW 17.3 mph 27.6 mph N/A   Mostly Cloudy
2:35 AM 46.4 °F 39.0 °F 8.6 °F 22% 29.82 in 6.0 mi WSW 19.6 mph 27.6 mph N/A   Mostly Cloudy
2:55 AM 46.4 °F 41.1 °F 14.0 °F 27% 29.82 in 5.0 mi WSW 11.5 mph 17.3 mph N/A   Mostly Cloudy
3:15 AM 44.6 °F 37.8 °F 15.8 °F 31% 29.81 in 5.0 mi WSW 15.0 mph 21.9 mph N/A   Overcast
3:35 AM 44.6 °F 37.8 °F 17.6 °F 34% 29.81 in 5.0 mi SW 15.0 mph - N/A   Scattered Clouds
3:55 AM 41.0 °F 33.9 °F 21.2 °F 45% 29.81 in 5.0 mi WSW 12.7 mph - N/A   Clear
4:15 AM 41.0 °F 35.8 °F 23.0 °F 49% 29.81 in 5.0 mi WSW 8.1 mph - N/A   Clear
4:35 AM 39.2 °F 35.0 °F 23.0 °F 52% 29.82 in 5.0 mi NW 5.8 mph - N/A   Clear
4:55 AM 37.4 °F 34.9 °F 26.6 °F 65% 29.82 in 7.0 mi WNW 3.5 mph - N/A   Clear
5:15 AM 37.4 °F 34.9 °F 26.6 °F 65% 29.82 in 10.0 mi WSW 3.5 mph - N/A   Clear
5:35 AM 37.4 °F 32.8 °F 26.6 °F 65% 29.82 in 5.0 mi WSW 5.8 mph - N/A   Clear
5:55 AM 35.6 °F 30.7 °F 26.6 °F 70% 29.82 in 9.0 mi West 5.8 mph - N/A   Clear
6:15 AM 35.6 °F 30.7 °F 30.2 °F 81% 29.82 in 10.0 mi West 5.8 mph - N/A   Clear
6:35 AM 39.2 °F 33.0 °F 28.4 °F 65% 29.83 in 10.0 mi WSW 9.2 mph - N/A   Mostly Cloudy
6:55 AM 37.4 °F 29.8 °F 28.4 °F 70% 29.84 in 10.0 mi West 11.5 mph - N/A   Mostly Cloudy
7:15 AM 39.2 °F 30.5 °F 28.4 °F 65% 29.84 in 10.0 mi West 16.1 mph - N/A   Partly Cloudy
7:35 AM 39.2 °F 30.5 °F 26.6 °F 61% 29.84 in 10.0 mi WSW 16.1 mph - N/A   Partly Cloudy
7:55 AM 39.2 °F 30.8 °F 26.6 °F 61% 29.85 in 10.0 mi SW 15.0 mph 21.9 mph N/A   Mostly Cloudy
8:15 AM 37.4 °F 27.8 °F 26.6 °F 65% 29.86 in 10.0 mi WSW 17.3 mph 23.0 mph N/A   Overcast
8:35 AM 37.4 °F 27.8 °F 26.6 °F 65% 29.86 in 10.0 mi WSW 17.3 mph 25.3 mph N/A   Overcast
8:55 AM 37.4 °F 27.5 °F 26.6 °F 65% 29.87 in 9.0 mi West 18.4 mph 24.2 mph N/A   Mostly Cloudy
9:15 AM 39.2 °F 30.5 °F 26.6 °F 61% 29.87 in 10.0 mi West 16.1 mph 20.7 mph N/A   Scattered Clouds
9:35 AM 41.0 °F 32.5 °F 23.0 °F 49% 29.88 in 10.0 mi West 17.3 mph 21.9 mph N/A   Scattered Clouds
9:55 AM 44.6 °F 38.1 °F 23.0 °F 43% 29.88 in 10.0 mi West 13.8 mph 21.9 mph N/A   Mostly Cloudy
10:15 AM 41.0 °F 33.1 °F 21.2 °F 45% 29.89 in 10.0 mi West 15.0 mph 27.6 mph N/A   Mostly Cloudy
10:35 AM 41.0 °F 32.8 °F 23.0 °F 49% 29.90 in 10.0 mi WSW 16.1 mph 24.2 mph N/A   Overcast
10:55 AM 42.8 °F 34.5 °F 24.8 °F 49% 29.91 in 10.0 mi West 18.4 mph 27.6 mph N/A   Mostly Cloudy
11:15 AM 41.0 °F 31.6 °F 23.0 °F 49% 29.91 in 10.0 mi WNW 20.7 mph 28.8 mph N/A   Mostly Cloudy
11:35 AM 44.6 °F 36.4 °F 23.0 °F 43% 29.92 in 10.0 mi West 20.7 mph 26.5 mph N/A   Mostly Cloudy
11:55 AM 42.8 °F 34.8 °F 23.0 °F 46% 29.92 in 10.0 mi NW 17.3 mph 25.3 mph N/A   Mostly Cloudy
12:15 PM 41.0 °F 32.5 °F 23.0 °F 49% 29.94 in 10.0 mi NW 17.3 mph - N/A   Overcast
12:35 PM 44.6 °F 36.9 °F 24.8 °F 46% 29.94 in 10.0 mi NW 18.4 mph - N/A   Mostly Cloudy
12:55 PM 42.8 °F 35.1 °F 23.0 °F 46% 29.94 in 10.0 mi WNW 16.1 mph - N/A   Mostly Cloudy
1:15 PM 42.8 °F 35.4 °F 23.0 °F 46% 29.95 in 10.0 mi WNW 15.0 mph 24.2 mph N/A   Overcast
1:35 PM 48.2 °F - 23.0 °F 37% 29.95 in 10.0 mi NW 19.6 mph 27.6 mph N/A   Mostly Cloudy
1:55 PM 44.6 °F 36.9 °F 23.0 °F 43% 29.96 in 10.0 mi NW 18.4 mph 25.3 mph N/A   Mostly Cloudy
2:15 PM 48.2 °F - 23.0 °F 37% 29.97 in 10.0 mi WNW 18.4 mph 23.0 mph N/A   Mostly Cloudy
2:35 PM 46.4 °F 39.5 °F 23.0 °F 40% 29.97 in 10.0 mi NNW 17.3 mph 21.9 mph N/A   Overcast
2:55 PM 46.4 °F 39.5 °F 21.2 °F 37% 29.97 in 10.0 mi NW 17.3 mph 25.3 mph N/A   Overcast
3:15 PM 46.4 °F 39.5 °F 21.2 °F 37% 29.98 in 10.0 mi West 17.3 mph 26.5 mph N/A   Overcast
3:35 PM 46.4 °F 39.0 °F 21.2 °F 37% 29.98 in 10.0 mi WNW 19.6 mph 26.5 mph N/A   Overcast
3:55 PM 46.4 °F 38.7 °F 21.2 °F 37% 29.99 in 10.0 mi NW 20.7 mph 28.8 mph N/A   Overcast
4:15 PM 46.4 °F 39.0 °F 23.0 °F 40% 29.99 in 10.0 mi WNW 19.6 mph 26.5 mph N/A   Overcast
4:35 PM 46.4 °F 39.8 °F 21.2 °F 37% 30.00 in 10.0 mi WNW 16.1 mph 25.3 mph N/A   Overcast
4:55 PM 46.4 °F 39.2 °F 21.2 °F 37% 30.00 in 10.0 mi WNW 18.4 mph 26.5 mph N/A   Mostly Cloudy
5:15 PM 46.4 °F 39.0 °F 21.2 °F 37% 30.00 in 10.0 mi WNW 19.6 mph 25.3 mph N/A   Partly Cloudy
5:35 PM 46.4 °F 38.7 °F 21.2 °F 37% 30.01 in 10.0 mi NW 20.7 mph 29.9 mph N/A   Clear
5:55 PM 46.4 °F 38.3 °F 21.2 °F 37% 30.01 in 10.0 mi WNW 23.0 mph 27.6 mph N/A   Clear
6:15 PM 46.4 °F 39.0 °F 23.0 °F 40% 30.02 in 10.0 mi WNW 19.6 mph 29.9 mph N/A   Partly Cloudy
6:35 PM 44.6 °F 37.2 °F 23.0 °F 43% 30.03 in 10.0 mi NW 17.3 mph 25.3 mph N/A   Partly Cloudy
6:55 PM 44.6 °F 38.1 °F 23.0 °F 43% 30.04 in 10.0 mi WNW 13.8 mph 20.7 mph N/A   Scattered Clouds
7:15 PM 42.8 °F 35.4 °F 23.0 °F 46% 30.05 in 10.0 mi WNW 15.0 mph - N/A   Partly Cloudy
7:55 PM 41.0 °F 34.7 °F 23.0 °F 49% 30.07 in 10.0 mi WNW 10.4 mph 17.3 mph N/A   Clear
8:15 PM 39.2 °F 33.6 °F 23.0 °F 52% 30.09 in 10.0 mi WNW 8.1 mph - N/A   Clear
8:35 PM 39.2 °F 33.0 °F 23.0 °F 52% 30.10 in 10.0 mi NW 9.2 mph - N/A   Partly Cloudy
8:55 PM 39.2 °F 32.0 °F 23.0 °F 52% 30.11 in 10.0 mi NW 11.5 mph - N/A   Partly Cloudy
9:15 PM 39.2 °F 32.0 °F 21.2 °F 49% 30.11 in 10.0 mi NW 11.5 mph - N/A   Clear
9:35 PM 37.4 °F 29.8 °F 21.2 °F 52% 30.12 in 10.0 mi NW 11.5 mph - N/A   Clear
9:55 PM 37.4 °F 30.8 °F 21.2 °F 52% 30.14 in 10.0 mi NNW 9.2 mph - N/A   Clear
10:15 PM 37.4 °F 31.4 °F 19.4 °F 48% 30.14 in 10.0 mi NW 8.1 mph - N/A   Clear
10:35 PM 35.6 °F 29.9 °F 19.4 °F 52% 30.14 in 10.0 mi NW 6.9 mph - N/A   Clear
10:55 PM 33.8 °F 27.7 °F 19.4 °F 56% 30.15 in 10.0 mi NW 6.9 mph - N/A   Clear
11:15 PM 32.0 °F 25.6 °F 19.4 °F 60% 30.15 in 10.0 mi NW 6.9 mph - N/A   Clear
11:35 PM 32.0 °F - 19.4 °F 60% 30.16 in 10.0 mi Calm Calm - N/A   Clear
11:55 PM 32.0 °F - 19.4 °F 60% 30.16 in 10.0 mi Calm Calm - N/A   Clear